User: anonymous   Login
Location: Unspecified
(0.0000°N, 0.0000°E)
Time: 17:26:30
(UTC+00:00)
Language:

KKS-1 - Orbit

View from above orbital plane
View from above orbital plane
View from above satellite
View from above satellite

Ground track
Ground track

The orbit data is extracted from the following two-line orbital elements,

1 33499U 09002H   18114.86786029  .00638627  00000-0  81035-1 0  9990
2 33499  98.3544 294.9148 0009905 107.6868 252.5424 14.79270276497312
Epoch (UTC): 24 April 2018 20:49:43
Eccentricity: 0.0009905
inclination: 98.3544°
perigee height: 624 km
apogee height: 638 km
right ascension of ascending node: 294.9148°
argument of perigee: 107.6868°
revolutions per day: 14.79270276
mean anomaly at epoch: 252.5424°
orbit number at epoch: 49731

The dashed part of the orbit path shows where the satellite is in the earth's shadow,  

DLR